Regional Weather Roundup
Issued by NWS

Home | Current Version | Previous Version | Text Only | Print | Product List | Glossary On
Versions: 1 2 3 4 5 6 7 8 9 10 11 12 13 14 15 16 17 18 19 20 21 22 23 24 25 26 27 28
000
ASUS45 KTFX 031210
RWRMT
Montana Regional Weather Roundup
National Weather Service Great Falls MT
600 AM MDT TUE AUG 03 2021

NOTE: "FAIR" indicates few or no clouds below 12,000 feet with no
significant weather and/or obstructions to visibility.

MTZ001>007-043-031300-
West of the divide

CITY           SKY/WX    TMP DP  RH WIND       PRES   REMARKS
Kalispell      FOG       60  59  96 CALM      30.15R VSB 1/4
Missoula       PTCLDY    63  61  93 NW3       30.20R FOG
Butte          MOCLDY    51  51 100 SE3       30.33R FOG
Anaconda         N/A     61  54  77 S3        30.28S
Deer Lodge       N/A     57  57 100 CALM      30.30R
Hamilton       PTCLDY    63  57  82 S12G18    30.21S
Mullan Pass    CLOUDY    63  49  60 NW5       30.33S HAZE
$$

MTZ008-052>055-031300-
Southwest Montana

CITY           SKY/WX    TMP DP  RH WIND       PRES   REMARKS
Bozeman        MOCLDY    62  59  90 CALM      30.24S
Dillon         PTCLDY    54  53  97 SW9       30.30R
Ennis          CLOUDY    59  57  94 CALM      30.35R
Three Forks      N/A     63  55  77 CALM      30.20R
Twin Bridges   FAIR      57  55  94 SE8       30.30R
W Yellowstone  MOCLDY    55  55 100 CALM      30.36S
$$

MTZ009-010-012-014-046-048-049-054-031300-
East Slopes and Central Montana

CITY           SKY/WX    TMP DP  RH WIND       PRES   REMARKS
Cut Bank       PTCLDY    59  56  89 W5        30.13R FOG
Great Falls    CLOUDY    68  58  70 SW12      30.11S
Helena         MOCLDY    64  58  80 W5        30.19R
Malmstrom AFB  CLOUDY    69  59  70 SW13      30.12R
Augusta        FAIR      64  55  72 W8        30.17R HAZE
Bowmans Corner MOCLDY    62  58  85 S8        30.16R
Raynesford     MOCLDY    67  59  74 E8        30.14S
Ulm            MOCLDY    69  58  67 S7        30.12S
$$

MTZ011-013-016-021-045-047-050-051-031300-
North Central Montana

CITY           SKY/WX    TMP DP  RH WIND       PRES   REMARKS
Havre          LGT RAIN  67  66  97 SW7       30.05R
Lewistown      CLOUDY    64  60  87 CALM      30.15R
Chinook          N/A     70  66  88 CALM      30.06R
Denton         MOCLDY    65  61  85 SW6       30.09R
Fort Benton      N/A     68  68 100 CALM      30.09R
Grass Range    CLOUDY    69  57  67 W9        30.10R
N Bar Ranch    CLOUDY    68  55  64 W5        30.17R
Roy            MOCLDY    68  61  78 W12       30.09R
Stanford         N/A     64  58  81 NW5       30.16R
Winifred         N/A     67  60  75 W5        30.11R
$$

MTZ017>020-022>027-061-062-031300-
Northeast Montana

CITY           SKY/WX    TMP DP  RH WIND       PRES   REMARKS
Glasgow        CLOUDY    73  45  36 E9        30.01R
Circle           N/A     66  41  39 N7        30.01
Glendive       MOCLDY    65  44  46 NE8       30.04S
Jordan           N/A     67  40  37 CALM      30.01F
Malta          PTCLDY    68  59  73 CALM      30.00R
Plentywood     PTCLDY    63  50  63 MISG      30.04S
Poplar           N/A     64  48  55 N3        30.02S
Sidney         MOCLDY    64  49  57 NW5       30.04R
Wolf Point     MOCLDY    65  47  52 E7        30.02S
$$

MTZ028>42-056>058-031300-
Southcentral and southeast Montana

CITY           SKY/WX    TMP DP  RH WIND       PRES   REMARKS
Baker          CLEAR     55  41  59 SE9       30.07R
Big Timber     CLOUDY    64  57  77 SW18G29   30.19S
Billings       CLOUDY    71  55  56 W14       30.12R
Harlowton      CLOUDY    66  56  71 W17       30.17R
Laurel           N/A    N/A N/A N/A MISG        N/A
Livingston     MOCLDY    65  58  78 SW13      30.22S
Miles City     PTCLDY    68  41  37 NE12      30.01R
Roundup          N/A     70  55  60 MISG      30.01R
$$

Regional Reports...Dakotas/MN

CITY           SKY/WX    TMP DP  RH WIND       PRES   REMARKS
Williston      PTSUNNY   67  49  52 N5        30.05R
Minot          PTCLDY    60  52  74 CALM      30.03S SMOKE
Dickinson      PTCLDY    58  53  84 SE7       30.05R
Beach          FAIR      57  45  62 SE3       30.07R
Crosby         FAIR      63  54  72 SW3       30.05R
Hettinger      CLEAR     60  55  83 E5        30.08R
Tioga          FAIR      55  52  88 CALM      30.07R
Watford City   FAIR      57  46  67 CALM      30.05R
Bismarck       PTCLDY    59  54  83 E5        30.06S
Grand Forks    MOCLDY    61  53  75 S3        30.01R HAZE
Fargo          PTCLDY    62  55  77 S7        30.04S
Buffalo SD       N/A     60  50  69 E6        30.04R
Rapid City     PTCLDY    56  50  80 CALM      30.06R
Intl Falls     PTCLDY    57  53  86 CALM      30.01R FOG
Duluth         MOSUNNY   66  54  65 NW7       30.06R SMOKE
Minneapolis    CLEAR     63  56  78 SW3       30.11R
$$

Regional Reports...WY/CO/ID/WA/OR

CITY           SKY/WX    TMP DP  RH WIND       PRES   REMARKS
Buffalo WY     PTCLDY    65  48  54 NW9       30.16S
Cody           CLOUDY    64  54  69 NW5       30.24R
Gillette       CLEAR     62  44  51 W8        30.11S
Powell         FAIR      64  48  55 NW18      30.19R
Sheridan       PTCLDY    71  52  50 NW10      30.11R
Yellowstone La   N/A     52  52 100 CALM      30.44F
Boise          CLEAR     69  60  73 SE10      30.15S
Couer d`Alene  CLEAR     67  60  78 NE7       30.12R HAZE
Idaho Falls    CLEAR     59  58  96 SE5       30.30S
Salmon         PTCLDY    55  54  96 CALM      30.30S FOG
Spokane        MOCLDY    70  52  52 S7        30.10S SMOKE
Seattle        PTCLDY    62  49  62 NW3       30.08S
Portland       PTCLDY    65  54  67 NW5       30.06S
$$

Regional Reports...Alberta

CITY           SKY/WX    TMP DP  RH WIND       PRES   REMARKS
Calgary        MOCLDY    68  57  68 W14       30.08S FOG
Cardston         N/A     61  57  88 SW6         N/A
Crowsnest Pass   N/A     52  52 100 S1          N/A
Del Bonita       N/A     55  55 100 W6          N/A
Edmonton       CLOUDY    64  63  94 W6        29.98F
Fort McMurray  CLOUDY    63  55  77 E2        29.96S
High Level     RAIN      66  64  94 E8        29.89  FOG
Lethbridge     MOCLDY    61  59  94 S8        30.08S FOG
Lloydminster   CLOUDY    64  61  88 E7        29.94S
Medicine Hat   MOCLDY    68  66  94 SW9       30.02R FOG
Milk River       N/A     61  59  94 NW8         N/A
Onefour          N/A     66  64  94 SE3         N/A
Peace River    CLOUDY    61  59  94 SW6       29.99S
Pincher Creek  PTCLDY    57  54  88 W5        30.14S FOG
Waterton Gate    N/A     54  52  94 NE2         N/A
Fort Smith NWT PTCLDY    63  50  63 SE6       29.83F
$$

Regional Reports...Saskatchewan

CITY           SKY/WX    TMP DP  RH WIND       PRES   REMARKS
Assiniboia       N/A     66  46  48 SW6         N/A
Coronach         N/A     63  50  63 W3          N/A
Cypress Hills    N/A     63  59  88 SW6         N/A
Estevan        CLEAR     57  52  82 NE5       30.04S
La Ronge         N/A     64  63  94 S3          N/A
Moose Jaw        N/A     72  46  40 S2          N/A
Prince Albert  CLOUDY    66  61  82 E6        29.96F SMOKE
Regina         MOCLDY    64  52  63 SE5       30.01F SMOKE
Rockglen         N/A     68  43  40 NE2         N/A
Saskatoon      CLOUDY    70  52  52 SW6       29.96S
Swift Current  CLOUDY    72  45  37 SE9       30.02S
Uranium City     N/A     57  55  94 MISG        N/A
Val Marie        N/A     72  41  33 E5          N/A
$$



USA.gov is the U.S. government's official web portal to all federal, state and local government web resources and services.